Weather in Neftegorsk

Russia / Samara Oblast     52°47′49″N   51°09′49″E
temp.,
°C
wind,
m/s
gust,
m/s
humid.,
%
clouds,
%
prec.,
mm/h
press.,
hPa
HPBL,
m
8 august, mon
mon801:00+21ne225189 0.0 101815
04:00+19ne336132 0.0 101833
07:00+21e36575 0.0 1019147
10:00+28ene343828 0.0 1019900
13:00+31nne4330100 0.0 10183043
16:00+30nne5430100 0.0 10182282
19:00+27nne344025 0.0 101771
22:00+21ne236383 0.0 101827
9 august, tue
tue901:00+20nne2267100 0.0 101820
04:00+19n3479100 0.3 101853
07:00+21ne3574100 0.0 1019151
10:00+26ne3452100 0.0 1019553
13:00+30ne3339100 0.0 10182151
16:00+30ne543968 0.0 10171487
19:00+25ne355673 0.6 1018137
22:00+22nne116156 0.9 101812
10 august, wed
wed1001:00+21ene126856 0.1 101811
04:00+19ese118035 1.0 101811
07:00+22ese11686 0.0 101866
10:00+27n11490 0.0 1018715
13:00+31wnw12370 0.0 10182108
16:00+31wnw333290 0.0 10172621
19:00+28nne354687 0.0 1016116
22:00+23se3365100 0.2 101735
11 august, thu
thu1101:00+22sse226397 0.0 101711
04:00+21se116895 0.0 101711
07:00+22nnw2266100 0.0 101883
10:00+26nnw555295 0.0 1018720
13:00+29nnw544497 0.0 10181468
16:00+28nnw5544100 0.0 10181456
19:00+24nnw6103686 0.0 1019567
22:00+18n611610 0.0 1021436
12 august, fri
fri1201:00+14n37770 0.0 1021148
04:00+13n36835 0.0 1022111
07:00+15n387075 0.0 1023288
10:00+21n57425 0.0 1023983
13:00+24n453459 0.0 10221945
16:00+25nnw45322 0.0 10212232
19:00+23nnw35416 0.0 1020107
22:00+18nnw33530 0.0 102125